Location: La Oliva
(42.2466°N, 2.9955°E)
Time: 08:21:08
(UTC+00:00)

IGS 5A - Pass Details

Date: 22 April 2021
Orbit: 584 x 587 km, 97.6° (Epoch: 02 May)

Event Time Altitude Azimuth Distance (km) Brightness Sun altitude
Exits shadow 19:54:22 22° 116° (ESE) 1,283 4.6 -13.7°
Maximum altitude 19:56:12 33° 70° (ENE) 998 4.3 -14.0°
Drops below altitude 10° 19:59:55 10° 7° (N) 1,915 6.4 -14.6°
Sets 20:02:14 0° 358° (N) 2,820 7.5 -15.0°
